Tracking 28081 objects as of 27-Sep-2023
HD Live streaming from Space Station
objects crossing your sky now

STARLINK-3362

Track STARLINK-3362 now!
10-day predictions
STARLINK-3362 is classified as:


NORAD ID: 51108
Int'l Code: 2022-005E
Perigee: 545.9 km
Apogee: 547.9 km
Inclination: 53.2 °
Period: 95.4 minutes
Semi major axis: 6917 km
RCS: Unknown
Launch date: January 19, 2022
Source: United States (US)
Launch site: AIR FORCE EASTERN TEST RANGE (AFETR)
Your satellite tracking list
Your tracking list is empty




NASA's NSSDC Master Catalog

Two Line Element Set (TLE):
1 51108U 22005E   23269.54175914  .00001646  00000-0  12148-3 0  9998
2 51108  53.2177 347.5958 0001424  89.1570 270.9585 15.08837263 94848
Source of the keplerian elements: AFSPC